Weather Roundup
Issued by NWS

Home | Current Version | Previous Version | Text Only | Print | Product List | Glossary On
Versions: 1 2 3 4 5 6 7 8 9 10 11 12 13 14 15 16 17 18 19 20 21 22 23 24 25 26 27 28 29 30 31 32 33 34 35 36 37 38 39 40 41 42 43 44 45 46 47 48 49 50
000
NZUS93 KARX 260510
HRRWXR

CURRENT HOURLY OBSERVATIONS ACROSS
MUCH OF THE UPPER MISSISSIPPI VALLEY
NATIONAL WEATHER SERVICE LA CROSSE WI
1200 AM CDT SUN MAR 26 2017


...SOUTHEAST MINNESOTA...


CITY           SKY/WX    TMP DP  RH WIND       PRES   REMARKS
ROCHESTER      CLOUDY    35  35 100 E10       29.97F FOG     WCI  27
ROCHESTER/MAYO CLOUDY    36  36 100 NE6       29.98F WCI  31
WINONA         CLOUDY    36  34  93 E6        30.02F WCI  31
AUSTIN         CLOUDY    36  34  93 E10       29.95F FOG     WCI  28
ALBERT LEA     CLOUDY    36  36 100 NE7       29.97S FOG     WCI  30
DODGE CENTER   CLOUDY    36  34  93 E14G20    29.97F WCI  27
PRESTON        FOG       34  33  96 E9        29.97F VSB 1/2 WCI  27
OWATONNA       DRIZZLE   37  36  93 E10       29.99R WCI  30
FARIBAULT      CLOUDY    37  37 100 E8        30.00S WCI  31
$$

...ELSEWHERE IN MINNESOTA...


CITY           SKY/WX    TMP DP  RH WIND       PRES   REMARKS
MINNEAPOLIS    LGT RAIN  38  36  92 NE9       30.02F FOG     WCI  31
INTNL FALLS    CLOUDY    32  25  75 S8        30.08S WCI  25
DULUTH         FRZ DRZL  32  31  96 E14       30.08F WCI  22
RED WING       RAIN      37  34  87 E9G16     30.01F WCI  31
REDWOOD FALLS  CLOUDY    39  34  82 NE3       30.00F
MANKATO        LGT RAIN  38  36  92 NE8       30.00S WCI  32
WORTHINGTON    CLOUDY    36  35  96 E10       29.96F FOG     WCI  28
FAIRMONT       LGT RAIN  37  36  96 NE7       29.98F FOG     WCI  32
$$

...SOUTHWEST WISCONSIN...


CITY           SKY/WX    TMP DP  RH WIND       PRES   REMARKS
LA CROSSE      CLOUDY    38  36  92 E9        30.01F WCI  31
PRAIRIE DU CHI CLOUDY    39  38  97 NE3       29.96F FOG
BOSCOBEL       CLOUDY    40  38  93 NE5       29.97F FOG
LONE ROCK      LGT RAIN  39  37  92 NE10      29.98F FOG     WCI  32
PLATTEVILLE    CLOUDY    40  40 100 NE14G20   29.92F WCI  32
FORT MC COY    CLOUDY    35  35 100 E12       30.02F FOG     WCI  26
CAMP DOUGLAS   CLOUDY    35  35  99 E8        30.02F FOG     WCI  29
MAUSTON-NEW LI DRIZZLE   36  35  98 E5        30.02F WCI  32
VIROQUA        CLOUDY    36  36 100 E12       29.97F VSB 1   WCI  27
WIS DELLS      CLOUDY    36  36  98 E12       29.99F FOG     WCI  28
$$

...ELSEWHERE IN WISCONSIN...


CITY           SKY/WX    TMP DP  RH WIND       PRES   REMARKS
MILWAUKEE      CLOUDY    39  37  92 NE12      30.02F FOG     WCI  32
MADISON        LGT RAIN  39  38  96 NE12      29.98F WCI  32
GREEN BAY      LGT RAIN  35  35 100 NE12      30.09F FOG     WCI  27
EAU CLAIRE     CLOUDY    35  34  96 E9        30.03F FOG     WCI  28
BLACK RVR FLS  CLOUDY    35  35 100 E7        30.02F FOG     WCI  29
MEDFORD        CLOUDY    32  31  96 E9G16     30.03F FOG     WCI  24
WAUSAU         CLOUDY    33  32  96 E12G18    30.05F WCI  24
WIS RAPIDS     CLOUDY    34  34 100 E13       30.05F WCI  25
MARSHFIELD     CLOUDY    33  31  92 E14       30.03F FOG     WCI  23
RICE LAKE      CLOUDY    37  34  92 CALM      30.06F
$$

...NORTHEAST IOWA...


CITY           SKY/WX    TMP DP  RH WIND       PRES   REMARKS
WATERLOO       LGT RAIN  40  38  93 NE9       29.91F FOG     WCI  34
DUBUQUE        CLOUDY    40  40 100 NE15      29.90F FOG     WCI  32
DECORAH        CLOUDY    37  37 100 E10       29.94F FOG     WCI  30
MASON CITY     CLOUDY    37  36  96 E9        29.95F WCI  30
CHARLES CITY   FOG       37  37 100 E10G16    29.94S VSB 1/2 WCI  30
OELWEIN        FOG       39  39 100 NE15G22   29.90F VSB 1/2 WCI  31
$$

...ELSEWHERE IN IOWA...


CITY           SKY/WX    TMP DP  RH WIND       PRES   REMARKS
DES MOINES     DRIZZLE   42  41  96 N7        29.89F FOG
IOWA CITY      CLOUDY    45  43  93 NE8       29.87F
FORT DODGE     CLOUDY    37  36  93 NE6       29.93F WCI  33
MARSHALLTOWN   CLOUDY    40  40 100 NE8       29.89F FOG     WCI  34
CEDAR RAPIDS   CLOUDY    42  42 100 NE14      29.85F FOG
$$

...NORTHERN ILLINOIS...


CITY           SKY/WX    TMP DP  RH WIND       PRES   REMARKS
CHICAGO-OHARE  LGT RAIN  46  43  89 NE9       29.94F FOG
CHICAGO-MIDWAY CLOUDY    49  47  93 N10       29.94F FOG
MOLINE         CLOUDY    47  45  93 E13       29.86F FOG
ROCKFORD       CLOUDY    45  43  93 NE10      29.95F FOG
PEORIA         CLOUDY    59  57  93 E9        29.84F
$$

NOTE: "FAIR" INDICATES FEW OR NO CLOUDS BELOW 12,000 FEET WITH NO
SIGNIFICANT WEATHER AND/OR OBSTRUCTIONS TO VISIBILITY. WIND
SPEEDS ARE IN MILES-PER-HOUR.




USA.gov is the U.S. government's official web portal to all federal, state and local government web resources and services.